MSC110 SPJC-SEGU

Flight info

Callsign MSC110
Flight time 1h 41m
Altitude 34000
Route TELEB2F ISREN UL780 EVRED EVRED2
Aircraft E190/M-SDE3GILORVW/S

Departure

Time 2026-04-25 10:11
Airport Jorge Chávez International Airport (SPJC)

Arrival

Time 2026-04-25 11:52
Airport José Joaquín de Olmedo International Airport (SEGU)
Time Latitude Longitude Altitude Speed Heading
2026-04-25 09:36 -12.02270 -77.10993 95 ft 0 kts 64°
2026-04-25 09:59 -12.02281 -77.11016 91 ft 4 kts 64°
2026-04-25 10:00 -12.02292 -77.11040 91 ft 4 kts 64°
2026-04-25 10:00 -12.02304 -77.11065 91 ft 4 kts 64°
2026-04-25 10:00 -12.02313 -77.11085 90 ft 4 kts 53°
2026-04-25 10:00 -12.02333 -77.11102 83 ft 4 kts 21°
2026-04-25 10:01 -12.02357 -77.11109 77 ft 2 kts 10°
2026-04-25 10:01 -12.02358 -77.11109 77 ft 0 kts 10°
2026-04-25 10:04 -12.02335 -77.11105 75 ft 7 kts 10°
2026-04-25 10:04 -12.02259 -77.11099 80 ft 15 kts 343°
2026-04-25 10:04 -12.02134 -77.11122 80 ft 22 kts 333°
2026-04-25 10:04 -12.02035 -77.11170 76 ft 25 kts 335°
2026-04-25 10:05 -12.01921 -77.11275 72 ft 23 kts 297°
2026-04-25 10:05 -12.01820 -77.11404 58 ft 24 kts 333°
2026-04-25 10:05 -12.01659 -77.11481 72 ft 26 kts 335°
2026-04-25 10:05 -12.01490 -77.11563 63 ft 27 kts 333°
2026-04-25 10:06 -12.01314 -77.11651 66 ft 29 kts 334°
2026-04-25 10:06 -12.01125 -77.11742 65 ft 31 kts 335°
2026-04-25 10:06 -12.00927 -77.11840 61 ft 33 kts 332°
2026-04-25 10:06 -12.00726 -77.11943 57 ft 28 kts 334°
2026-04-25 10:07 -12.00689 -77.12054 52 ft 9 kts 243°
2026-04-25 10:07 -12.00691 -77.12058 52 ft 0 kts 243°
2026-04-25 10:08 -12.00697 -77.12069 49 ft 0 kts 243°
2026-04-25 10:08 -12.00697 -77.12070 49 ft 0 kts 243°
2026-04-25 10:09 -12.00699 -77.12074 50 ft 3 kts 243°
2026-04-25 10:09 -12.00727 -77.12102 52 ft 9 kts 201°
2026-04-25 10:09 -12.00809 -77.12111 49 ft 9 kts 177°
2026-04-25 10:10 -12.00835 -77.12100 51 ft 0 kts 154°
2026-04-25 10:10 -12.01008 -77.12014 54 ft 67 kts 154°
2026-04-25 10:10 -12.01660 -77.11697 61 ft 140 kts 155°
2026-04-25 10:10 -12.02696 -77.11176 407 ft 179 kts 154°
2026-04-25 10:11 -12.03837 -77.10573 950 ft 179 kts 154°
2026-04-25 10:11 -12.04912 -77.10036 1058 ft 172 kts 155°
2026-04-25 10:11 -12.06069 -77.09486 1507 ft 195 kts 155°
2026-04-25 10:11 -12.07353 -77.08875 2126 ft 213 kts 155°
2026-04-25 10:12 -12.08740 -77.08198 2913 ft 226 kts 154°
2026-04-25 10:12 -12.10215 -77.07468 3657 ft 250 kts 154°
2026-04-25 10:12 -12.13671 -77.06026 5300 ft 279 kts 175°
2026-04-25 10:13 -12.15579 -77.06340 5953 ft 281 kts 205°
2026-04-25 10:13 -12.17073 -77.07558 6103 ft 277 kts 236°
2026-04-25 10:13 -12.17717 -77.09366 6109 ft 274 kts 267°
2026-04-25 10:13 -12.17555 -77.11262 6106 ft 267 kts 279°
2026-04-25 10:14 -12.17244 -77.13136 6027 ft 269 kts 280°
2026-04-25 10:14 -12.16920 -77.15005 5993 ft 266 kts 280°
2026-04-25 10:14 -12.16627 -77.16869 5998 ft 266 kts 279°
2026-04-25 10:14 -12.16347 -77.18744 6001 ft 266 kts 279°
2026-04-25 10:15 -12.16071 -77.20614 6004 ft 266 kts 279°
2026-04-25 10:15 -12.15794 -77.22485 6006 ft 266 kts 279°
2026-04-25 10:15 -12.15515 -77.24359 6002 ft 266 kts 279°
2026-04-25 10:15 -12.15078 -77.26199 6522 ft 269 kts 296°
2026-04-25 10:16 -12.13890 -77.27649 7262 ft 269 kts 323°
2026-04-25 10:16 -12.12360 -77.28752 8042 ft 270 kts 325°
2026-04-25 10:16 -12.10814 -77.29868 8795 ft 274 kts 325°
2026-04-25 10:16 -12.09251 -77.31000 9550 ft 278 kts 325°
2026-04-25 10:17 -12.07657 -77.32146 10281 ft 282 kts 325°
2026-04-25 10:17 -12.06037 -77.33305 10907 ft 291 kts 326°
2026-04-25 10:17 -12.04316 -77.34518 11346 ft 316 kts 326°
2026-04-25 10:17 -12.02405 -77.35855 11850 ft 340 kts 326°
2026-04-25 10:18 -12.00441 -77.37229 12633 ft 351 kts 326°
2026-04-25 10:18 -11.98419 -77.38656 13631 ft 356 kts 326°
2026-04-25 10:18 -11.96371 -77.40099 14571 ft 360 kts 326°
2026-04-25 10:18 -11.94293 -77.41555 15513 ft 365 kts 327°
2026-04-25 10:19 -11.92177 -77.43026 16404 ft 371 kts 327°
2026-04-25 10:19 -11.90019 -77.44517 17252 ft 377 kts 328°
2026-04-25 10:19 -11.87825 -77.46022 18069 ft 383 kts 328°
2026-04-25 10:19 -11.85594 -77.47545 18781 ft 388 kts 328°
2026-04-25 10:20 -11.83336 -77.49080 19466 ft 392 kts 328°
2026-04-25 10:20 -11.81050 -77.50627 20111 ft 397 kts 328°
2026-04-25 10:20 -11.78733 -77.52189 20768 ft 401 kts 328°
2026-04-25 10:20 -11.76371 -77.53753 21215 ft 410 kts 330°
2026-04-25 10:21 -11.73900 -77.55260 21740 ft 416 kts 331°
2026-04-25 10:21 -11.71360 -77.56786 22368 ft 420 kts 331°
2026-04-25 10:21 -11.68871 -77.58295 22978 ft 424 kts 330°
2026-04-25 10:21 -11.66335 -77.59843 23567 ft 427 kts 330°
2026-04-25 10:22 -11.63776 -77.61411 24048 ft 430 kts 330°
2026-04-25 10:22 -11.61169 -77.63010 24542 ft 433 kts 330°
2026-04-25 10:22 -11.58616 -77.64575 24982 ft 436 kts 330°
2026-04-25 10:22 -11.56011 -77.66173 25428 ft 438 kts 330°
2026-04-25 10:23 -11.53394 -77.67777 25856 ft 441 kts 330°
2026-04-25 10:23 -11.50757 -77.69394 26276 ft 443 kts 330°
2026-04-25 10:23 -11.48109 -77.71016 26701 ft 446 kts 330°
2026-04-25 10:23 -11.45446 -77.72648 27119 ft 448 kts 330°
2026-04-25 10:24 -11.42765 -77.74289 27534 ft 450 kts 330°
2026-04-25 10:24 -11.40071 -77.75939 27911 ft 453 kts 330°
2026-04-25 10:24 -11.37360 -77.77598 28291 ft 456 kts 330°
2026-04-25 10:24 -11.34635 -77.79267 28664 ft 458 kts 330°
2026-04-25 10:25 -11.31898 -77.80941 29042 ft 459 kts 330°
2026-04-25 10:25 -11.29164 -77.82614 29552 ft 457 kts 330°
2026-04-25 10:25 -11.26442 -77.84280 30037 ft 455 kts 330°
2026-04-25 10:25 -11.23733 -77.85936 30426 ft 454 kts 330°
2026-04-25 10:26 -11.21025 -77.87591 30802 ft 453 kts 330°
2026-04-25 10:26 -11.18326 -77.89241 31163 ft 453 kts 330°
2026-04-25 10:26 -11.15627 -77.90890 31534 ft 452 kts 331°
2026-04-25 10:26 -11.12930 -77.92538 31919 ft 451 kts 331°
2026-04-25 10:27 -11.10245 -77.94178 32311 ft 450 kts 331°
2026-04-25 10:27 -11.07561 -77.95817 32681 ft 449 kts 331°
2026-04-25 10:27 -11.04878 -77.97442 33044 ft 448 kts 333°
2026-04-25 10:27 -11.02117 -77.98917 33381 ft 447 kts 336°
2026-04-25 10:28 -10.99338 -78.00323 33733 ft 446 kts 336°
2026-04-25 10:28 -10.96574 -78.01738 34095 ft 439 kts 336°
2026-04-25 10:28 -10.93885 -78.03134 34028 ft 429 kts 335°
2026-04-25 10:29 -10.88644 -78.05876 33969 ft 420 kts 335°
2026-04-25 10:29 -10.83433 -78.08605 33986 ft 422 kts 335°
2026-04-25 10:30 -10.78210 -78.11342 33979 ft 422 kts 335°
2026-04-25 10:30 -10.72985 -78.14080 33987 ft 422 kts 336°
2026-04-25 10:31 -10.67764 -78.16816 33977 ft 422 kts 336°
2026-04-25 10:31 -10.62544 -78.19549 33967 ft 422 kts 336°
2026-04-25 10:32 -10.57321 -78.22283 33967 ft 422 kts 336°
2026-04-25 10:32 -10.52096 -78.25017 33971 ft 422 kts 336°
2026-04-25 10:33 -10.46873 -78.27749 33968 ft 422 kts 336°
2026-04-25 10:33 -10.41651 -78.30479 33971 ft 422 kts 336°
2026-04-25 10:34 -10.36420 -78.33213 33968 ft 422 kts 336°
2026-04-25 10:34 -10.31195 -78.35943 33971 ft 423 kts 336°
2026-04-25 10:35 -10.25967 -78.38674 33970 ft 422 kts 336°
2026-04-25 10:35 -10.20743 -78.41401 33968 ft 422 kts 336°
2026-04-25 10:36 -10.15513 -78.44130 33971 ft 422 kts 336°
2026-04-25 10:36 -10.10292 -78.46854 33968 ft 422 kts 336°
2026-04-25 10:37 -10.05111 -78.49556 33969 ft 422 kts 336°
2026-04-25 10:37 -9.99893 -78.52276 33969 ft 422 kts 336°
2026-04-25 10:38 -9.94674 -78.54995 33972 ft 421 kts 336°
2026-04-25 10:38 -9.89398 -78.57741 33995 ft 434 kts 336°
2026-04-25 10:39 -9.83905 -78.60598 33985 ft 452 kts 336°
2026-04-25 10:39 -9.78217 -78.63560 33968 ft 465 kts 335°
2026-04-25 10:40 -9.72430 -78.66573 33956 ft 469 kts 335°
2026-04-25 10:40 -9.66348 -78.68782 33952 ft 464 kts 348°
2026-04-25 10:41 -9.60110 -78.70450 33963 ft 464 kts 348°
2026-04-25 10:41 -9.53872 -78.72130 33967 ft 464 kts 348°
2026-04-25 10:42 -9.47633 -78.73819 33968 ft 464 kts 348°
2026-04-25 10:42 -9.41396 -78.75508 33967 ft 464 kts 348°
2026-04-25 10:43 -9.35160 -78.77197 33963 ft 464 kts 348°
2026-04-25 10:43 -9.28922 -78.78885 33964 ft 464 kts 348°
2026-04-25 10:44 -9.22684 -78.80574 33964 ft 464 kts 348°
2026-04-25 10:44 -9.16445 -78.82261 33961 ft 464 kts 348°
2026-04-25 10:45 -9.10207 -78.83948 33964 ft 464 kts 348°
2026-04-25 10:45 -9.03966 -78.85635 33961 ft 464 kts 348°
2026-04-25 10:46 -8.97726 -78.87321 33970 ft 464 kts 348°
2026-04-25 10:46 -8.91487 -78.89007 33963 ft 464 kts 348°
2026-04-25 10:47 -8.85248 -78.90691 33966 ft 464 kts 348°
2026-04-25 10:47 -8.79008 -78.92375 33962 ft 464 kts 348°
2026-04-25 10:48 -8.72767 -78.94059 33966 ft 464 kts 348°
2026-04-25 10:48 -8.66567 -78.95732 33965 ft 464 kts 348°
2026-04-25 10:49 -8.60325 -78.97415 33967 ft 464 kts 348°
2026-04-25 10:49 -8.54078 -78.99099 33965 ft 465 kts 348°
2026-04-25 10:50 -8.47826 -79.00784 33968 ft 465 kts 348°
2026-04-25 10:50 -8.41571 -79.02468 33965 ft 465 kts 348°
2026-04-25 10:51 -8.35315 -79.04153 33966 ft 466 kts 348°
2026-04-25 10:51 -8.29055 -79.05838 33964 ft 466 kts 348°
2026-04-25 10:52 -8.23849 -79.07239 33967 ft 466 kts 348°
2026-04-25 10:52 -8.17591 -79.08922 33967 ft 466 kts 348°
2026-04-25 10:53 -8.11320 -79.10609 33969 ft 466 kts 348°
2026-04-25 10:53 -8.04976 -79.11811 33976 ft 463 kts 356°
2026-04-25 10:54 -7.98578 -79.12600 33966 ft 463 kts 356°
2026-04-25 10:54 -7.92180 -79.13396 33965 ft 463 kts 356°
2026-04-25 10:55 -7.85785 -79.14204 33966 ft 463 kts 356°
2026-04-25 10:55 -7.79392 -79.15013 33966 ft 463 kts 356°
2026-04-25 10:56 -7.73037 -79.15816 33967 ft 463 kts 356°
2026-04-25 10:56 -7.66647 -79.16625 33964 ft 463 kts 356°
2026-04-25 10:57 -7.60253 -79.17433 33972 ft 463 kts 356°
2026-04-25 10:57 -7.53868 -79.18239 33979 ft 463 kts 356°
2026-04-25 10:58 -7.47476 -79.19045 33972 ft 462 kts 356°
2026-04-25 10:58 -7.41086 -79.19851 33980 ft 463 kts 356°
2026-04-25 10:59 -7.34684 -79.20660 33978 ft 464 kts 356°
2026-04-25 10:59 -7.28279 -79.21469 33980 ft 465 kts 356°
2026-04-25 11:00 -7.21850 -79.22282 33977 ft 464 kts 356°
2026-04-25 11:00 -7.15427 -79.23090 33983 ft 465 kts 356°
2026-04-25 11:01 -7.09021 -79.23896 33979 ft 464 kts 355°
2026-04-25 11:01 -7.02600 -79.24705 33979 ft 465 kts 355°
2026-04-25 11:02 -6.96192 -79.25511 33983 ft 464 kts 355°
2026-04-25 11:02 -6.89788 -79.26319 33983 ft 465 kts 355°
2026-04-25 11:03 -6.83381 -79.27126 33973 ft 463 kts 355°
2026-04-25 11:03 -6.76982 -79.27932 33984 ft 463 kts 355°
2026-04-25 11:04 -6.70586 -79.28737 33978 ft 463 kts 355°
2026-04-25 11:04 -6.64187 -79.29540 33987 ft 463 kts 355°
2026-04-25 11:05 -6.57801 -79.30344 33988 ft 462 kts 355°
2026-04-25 11:05 -6.51459 -79.31141 34002 ft 462 kts 355°
2026-04-25 11:06 -6.45070 -79.31944 34014 ft 462 kts 355°
2026-04-25 11:06 -6.38698 -79.32745 34012 ft 461 kts 355°
2026-04-25 11:07 -6.32315 -79.33547 34020 ft 462 kts 355°
2026-04-25 11:07 -6.25947 -79.34347 34019 ft 461 kts 355°
2026-04-25 11:08 -6.19583 -79.35147 34032 ft 461 kts 355°
2026-04-25 11:08 -6.13204 -79.35948 34031 ft 462 kts 356°
2026-04-25 11:09 -6.06810 -79.36752 34039 ft 463 kts 356°
2026-04-25 11:09 -6.00412 -79.37554 34032 ft 464 kts 356°
2026-04-25 11:10 -5.94007 -79.38359 34036 ft 464 kts 356°
2026-04-25 11:10 -5.87590 -79.39161 34049 ft 465 kts 356°
2026-04-25 11:11 -5.81168 -79.39966 34037 ft 465 kts 356°
2026-04-25 11:11 -5.74737 -79.40772 34051 ft 466 kts 356°
2026-04-25 11:12 -5.68300 -79.41580 34043 ft 466 kts 356°
2026-04-25 11:12 -5.61850 -79.42389 34048 ft 467 kts 356°
2026-04-25 11:13 -5.55399 -79.43196 34053 ft 467 kts 356°
2026-04-25 11:13 -5.48940 -79.44006 34055 ft 467 kts 356°
2026-04-25 11:14 -5.42474 -79.44817 34062 ft 468 kts 356°
2026-04-25 11:14 -5.36014 -79.45625 34065 ft 468 kts 356°
2026-04-25 11:15 -5.29535 -79.46436 34074 ft 469 kts 356°
2026-04-25 11:15 -5.23059 -79.47246 34065 ft 469 kts 356°
2026-04-25 11:16 -5.13333 -79.48462 34078 ft 470 kts 356°
2026-04-25 11:16 -5.06844 -79.49275 34077 ft 470 kts 356°
2026-04-25 11:17 -5.00355 -79.50085 34085 ft 469 kts 356°
2026-04-25 11:17 -4.93909 -79.50891 34070 ft 470 kts 356°
2026-04-25 11:18 -4.87425 -79.51704 34074 ft 470 kts 356°
2026-04-25 11:18 -4.80950 -79.52513 34068 ft 469 kts 356°
2026-04-25 11:19 -4.74479 -79.53322 34063 ft 468 kts 356°
2026-04-25 11:19 -4.68013 -79.54129 34067 ft 468 kts 356°
2026-04-25 11:20 -4.61554 -79.54936 34052 ft 467 kts 356°
2026-04-25 11:20 -4.55104 -79.55741 34059 ft 467 kts 356°
2026-04-25 11:21 -4.48646 -79.56549 34038 ft 468 kts 356°
2026-04-25 11:21 -4.42184 -79.57379 34033 ft 469 kts 356°
2026-04-25 11:22 -4.36815 -79.58069 34032 ft 468 kts 356°
2026-04-25 11:22 -4.29256 -79.59033 34025 ft 469 kts 356°
2026-04-25 11:23 -4.22788 -79.59859 34053 ft 469 kts 356°
2026-04-25 11:23 -4.16312 -79.60688 34069 ft 469 kts 356°
2026-04-25 11:24 -4.09840 -79.61515 34077 ft 469 kts 356°
2026-04-25 11:24 -4.03369 -79.62340 34090 ft 469 kts 356°
2026-04-25 11:25 -3.96895 -79.63168 34085 ft 470 kts 356°
2026-04-25 11:25 -3.90427 -79.63998 34088 ft 468 kts 356°
2026-04-25 11:26 -3.83951 -79.64821 34049 ft 470 kts 356°
2026-04-25 11:26 -3.77465 -79.65650 34016 ft 469 kts 356°
2026-04-25 11:27 -3.70997 -79.66475 34005 ft 468 kts 356°
2026-04-25 11:27 -3.65617 -79.67163 34012 ft 470 kts 356°
2026-04-25 11:28 -3.58092 -79.68124 33681 ft 464 kts 356°
2026-04-25 11:28 -3.54945 -79.68528 33418 ft 449 kts 356°
2026-04-25 11:28 -3.51865 -79.68921 32732 ft 446 kts 356°
2026-04-25 11:29 -3.48801 -79.69311 32149 ft 443 kts 356°
2026-04-25 11:29 -3.45735 -79.69701 31553 ft 443 kts 356°
2026-04-25 11:29 -3.42682 -79.70090 30962 ft 445 kts 356°
2026-04-25 11:29 -3.39595 -79.70483 30384 ft 446 kts 356°
2026-04-25 11:30 -3.36506 -79.70877 29695 ft 448 kts 356°
2026-04-25 11:30 -3.33428 -79.71270 29192 ft 446 kts 356°
2026-04-25 11:30 -3.30340 -79.71663 28560 ft 449 kts 355°
2026-04-25 11:30 -3.27242 -79.72058 27956 ft 446 kts 355°
2026-04-25 11:31 -3.24183 -79.72450 27372 ft 441 kts 355°
2026-04-25 11:31 -3.21156 -79.72835 26819 ft 435 kts 355°
2026-04-25 11:31 -3.18167 -79.73219 26182 ft 433 kts 355°
2026-04-25 11:31 -3.15195 -79.73597 25652 ft 428 kts 354°
2026-04-25 11:32 -3.12249 -79.73971 25064 ft 425 kts 354°
2026-04-25 11:32 -3.09329 -79.74342 24511 ft 421 kts 354°
2026-04-25 11:32 -3.06430 -79.74712 23954 ft 418 kts 354°
2026-04-25 11:32 -3.03560 -79.75078 23342 ft 414 kts 353°
2026-04-25 11:33 -3.00719 -79.75442 22793 ft 410 kts 353°
2026-04-25 11:33 -2.97901 -79.75801 22312 ft 406 kts 353°
2026-04-25 11:33 -2.95096 -79.76158 21781 ft 404 kts 353°
2026-04-25 11:33 -2.92306 -79.76514 21230 ft 402 kts 353°
2026-04-25 11:34 -2.89540 -79.76866 20639 ft 401 kts 353°
2026-04-25 11:34 -2.86786 -79.77217 20107 ft 398 kts 353°
2026-04-25 11:34 -2.84053 -79.77566 19623 ft 393 kts 353°
2026-04-25 11:34 -2.81352 -79.77910 19127 ft 392 kts 353°
2026-04-25 11:35 -2.78645 -79.78248 18585 ft 389 kts 354°
2026-04-25 11:35 -2.75995 -79.78469 18033 ft 386 kts 356°
2026-04-25 11:35 -2.73299 -79.78633 17503 ft 381 kts 357°
2026-04-25 11:35 -2.70696 -79.78802 17040 ft 378 kts 356°
2026-04-25 11:36 -2.68071 -79.78988 16511 ft 377 kts 356°
2026-04-25 11:36 -2.65427 -79.79182 15982 ft 375 kts 356°
2026-04-25 11:36 -2.62837 -79.79375 15526 ft 372 kts 356°
2026-04-25 11:36 -2.60262 -79.79567 14992 ft 371 kts 356°
2026-04-25 11:37 -2.57738 -79.79756 14528 ft 366 kts 356°
2026-04-25 11:37 -2.55239 -79.79941 14031 ft 356 kts 355°
2026-04-25 11:37 -2.52793 -79.80124 13565 ft 348 kts 355°
2026-04-25 11:37 -2.50419 -79.80303 13067 ft 333 kts 355°
2026-04-25 11:38 -2.48187 -79.80469 12641 ft 310 kts 355°
2026-04-25 11:38 -2.46107 -79.80625 12274 ft 291 kts 355°
2026-04-25 11:38 -2.44104 -79.80775 11940 ft 288 kts 355°
2026-04-25 11:38 -2.42091 -79.80925 11526 ft 290 kts 355°
2026-04-25 11:39 -2.40069 -79.81076 11135 ft 294 kts 355°
2026-04-25 11:39 -2.38020 -79.81230 10770 ft 296 kts 355°
2026-04-25 11:39 -2.35961 -79.81383 10322 ft 297 kts 355°
2026-04-25 11:39 -2.33918 -79.81536 9956 ft 293 kts 355°
2026-04-25 11:40 -2.32576 -79.81637 9704 ft 291 kts 355°
2026-04-25 11:40 -2.30562 -79.81787 9287 ft 288 kts 356°
2026-04-25 11:40 -2.27913 -79.81986 8804 ft 283 kts 356°
2026-04-25 11:40 -2.26612 -79.82083 8529 ft 282 kts 356°
2026-04-25 11:41 -2.24672 -79.82229 8214 ft 277 kts 356°
2026-04-25 11:41 -2.22759 -79.82351 7774 ft 276 kts
2026-04-25 11:41 -2.20904 -79.81873 7331 ft 275 kts 25°
2026-04-25 11:41 -2.19264 -79.80931 7034 ft 270 kts 33°
2026-04-25 11:42 -2.17683 -79.79914 6628 ft 270 kts 32°
2026-04-25 11:42 -2.16089 -79.78939 6337 ft 266 kts 31°
2026-04-25 11:42 -2.14496 -79.78002 5919 ft 266 kts 31°
2026-04-25 11:42 -2.12909 -79.77084 5620 ft 262 kts 30°
2026-04-25 11:43 -2.11334 -79.76178 5294 ft 260 kts 30°
2026-04-25 11:43 -2.09764 -79.75279 4930 ft 257 kts 30°
2026-04-25 11:43 -2.08259 -79.74419 4620 ft 242 kts 30°
2026-04-25 11:43 -2.06785 -79.73710 4290 ft 230 kts 13°
2026-04-25 11:44 -2.05242 -79.73795 4114 ft 225 kts 339°
2026-04-25 11:44 -2.04011 -79.74748 3872 ft 228 kts 304°
2026-04-25 11:44 -2.03416 -79.76201 3602 ft 227 kts 282°
2026-04-25 11:44 -2.03187 -79.77709 3301 ft 212 kts 276°
2026-04-25 11:45 -2.02999 -79.79137 2875 ft 204 kts 275°
2026-04-25 11:45 -2.03197 -79.80440 2863 ft 179 kts 234°
2026-04-25 11:45 -2.03984 -79.81305 3606 ft 162 kts 227°
2026-04-25 11:45 -2.04810 -79.82090 4287 ft 177 kts 217°
2026-04-25 11:46 -2.05876 -79.82858 4074 ft 194 kts 213°
2026-04-25 11:46 -2.06970 -79.83574 3776 ft 182 kts 211°
2026-04-25 11:46 -2.08058 -79.84212 3265 ft 181 kts 208°
2026-04-25 11:46 -2.09155 -79.84802 2745 ft 171 kts 207°
2026-04-25 11:47 -2.10130 -79.85255 2531 ft 143 kts 195°
2026-04-25 11:47 -2.11040 -79.85124 2318 ft 134 kts 155°
2026-04-25 11:47 -2.11870 -79.84652 1905 ft 136 kts 144°
2026-04-25 11:47 -2.12358 -79.83880 1607 ft 134 kts 102°
2026-04-25 11:48 -2.12192 -79.83012 1496 ft 133 kts 56°
2026-04-25 11:48 -2.11457 -79.82501 1476 ft 129 kts 17°
2026-04-25 11:48 -2.10571 -79.82243 1587 ft 135 kts 12°
2026-04-25 11:48 -2.09688 -79.82384 1610 ft 134 kts 321°
2026-04-25 11:49 -2.09111 -79.83079 1562 ft 130 kts 303°
2026-04-25 11:49 -2.08942 -79.83935 1415 ft 127 kts 254°
2026-04-25 11:49 -2.09410 -79.84679 1297 ft 130 kts 229°
2026-04-25 11:49 -2.10146 -79.85198 1091 ft 128 kts 212°
2026-04-25 11:50 -2.10904 -79.85629 907 ft 128 kts 207°
2026-04-25 11:50 -2.11721 -79.85991 711 ft 123 kts 208°
2026-04-25 11:50 -2.12423 -79.86449 606 ft 124 kts 210°
2026-04-25 11:50 -2.13181 -79.86877 502 ft 126 kts 212°
2026-04-25 11:51 -2.13947 -79.87323 291 ft 126 kts 211°
2026-04-25 11:51 -2.14694 -79.87760 73 ft 122 kts 211°
2026-04-25 11:51 -2.15376 -79.88156 28 ft 97 kts 212°
2026-04-25 11:51 -2.15813 -79.88408 25 ft 52 kts 208°
2026-04-25 11:52 -2.16029 -79.88548 27 ft 8 kts 252°
2026-04-25 11:52 -2.16019 -79.88569 26 ft 0 kts 301°
2026-04-25 11:52 -2.16009 -79.88585 26 ft 0 kts 300°
2026-04-25 11:52 -2.16005 -79.88592 27 ft 2 kts 300°
2026-04-25 11:53 -2.15992 -79.88602 27 ft 5 kts 335°
2026-04-25 11:53 -2.15930 -79.88584 27 ft 15 kts 30°
2026-04-25 11:53 -2.15812 -79.88517 27 ft 24 kts 29°
2026-04-25 11:53 -2.15652 -79.88423 26 ft 29 kts 30°
2026-04-25 11:54 -2.15478 -79.88324 27 ft 29 kts 31°
2026-04-25 11:54 -2.15317 -79.88229 26 ft 21 kts 30°
2026-04-25 11:54 -2.15210 -79.88316 27 ft 12 kts 299°
2026-04-25 11:55 -2.15164 -79.88391 27 ft 13 kts 317°
2026-04-25 11:55 -2.15083 -79.88368 27 ft 14 kts 28°
2026-04-25 11:55 -2.14993 -79.88316 27 ft 16 kts 31°
2026-04-25 11:55 -2.14930 -79.88290 27 ft 3 kts 334°
2026-04-25 11:56 -2.14920 -79.88308 27 ft 4 kts 299°
2026-04-25 11:56 -2.14908 -79.88326 27 ft 1 kts 300°
2026-04-25 11:56 -2.14901 -79.88339 27 ft 3 kts 300°
2026-04-25 11:56 -2.14899 -79.88342 27 ft 0 kts 300°